カタログに戻る

SL-8 DEB

運用中LEO
NORAD 18681·DEBRIS·🇷🇺 Russia

打ち上げ Jun 9, 1987 から Plesetsk Cosmodrome

Loading…

次のパス (今後24時間)

TLE

最新Source: Space-Track

元期: Sep 14, 2026, 11:14 UTC

1 18681U 87049D   26257.46855374  .00000810  00000-0  21613-3 0  9991
2 18681  74.0267  69.2600 0016105 265.0071 124.9022 14.49995850 58512

AllMySatでSL-8 DEBをリアルタイム追跡

Download on the App Store